Location: Newark
(41.0400°S, 62.7845°W)
Time: 05:59:41
(UTC+00:00)

Envisat - Pass Details

Date: 25 October 2021
Orbit: 764 x 766 km, 98.2° (Epoch: 30 November)

Event Time Altitude Azimuth Distance (km) Brightness Sun altitude
Rises 07:26:07 0° 46° (NE) 3,229 6.4 -17.9°
Reaches altitude 10° 07:28:42 10° 57° (ENE) 2,311 5.8 -17.5°
Maximum altitude 07:32:57 27° 114° (ESE) 1,453 5.3 -16.9°
Drops below altitude 10° 07:37:13 10° 170° (S) 2,335 6.1 -16.2°
Sets 07:39:50 0° 181° (S) 3,270 6.7 -15.8°
